Satellite: FO-70
Catalog number: 37380
Epoch time:      12271.05182549
Element set:    0298
Inclination:      071.9710 deg
RA of node:       087.8490 deg
Eccentricity:    0.0016476
Arg of perigee:   131.8420 deg
Mean anomaly:     228.4153 deg
Mean motion:   14.76928503 rev/day
Decay rate:       6.10e-06 rev/day^2
Epoch rev:           05102
Checksum:              293

Satellite: ALMASAT-1
Catalog number: 38078
Epoch time:      12271.56913916
Element set:     600
Inclination:      069.4789 deg
RA of node:       084.8076 deg
Eccentricity:    0.0741426
Arg of perigee:   120.3450 deg
Mean anomaly:     247.3245 deg
Mean motion:   14.12820104 rev/day
Decay rate:     3.5440e-04 rev/day^2
Epoch rev:            3199
Checksum:              297

Satellite: XATCOBEO
Catalog number: 38082
Epoch time:      12271.82395964
Element set:     579
Inclination:      069.4856 deg
RA of node:       079.0447 deg
Eccentricity:    0.0697883
Arg of perigee:   117.2218 deg
Mean anomaly:     250.2007 deg
Mean motion:   14.24927290 rev/day
Decay rate:     8.8585e-04 rev/day^2
Epoch rev:            3216
Checksum:              342

/EX
SB KEPS @ AMSAT  $ORB12271.W
Orbital Elements  12271.WEATHER

HR AMSAT ORBITAL ELEMENTS FOR WEATHER SATELLITES
FROM WA5QGD FORT WORTH,TX September 27, 2012
Send SUBSCRIBE KEPS/UNSUBSCRIBE KEPS to majordomo at amsat.org only
BID: ORB12271.W
TO ALL RADIO AMATEURS BT

Satellite: NOAA-10
Catalog number: 16969
Epoch time:      12270.71938513
Element set:    0080
Inclination:      098.5751 deg
RA of node:       297.9346 deg
Eccentricity:    0.0011597
Arg of perigee:   300.4847 deg
Mean anomaly:     059.5177 deg
Mean motion:   14.27578098 rev/day
Decay rate:       -1.7e-07 rev/day^2
Epoch rev:           35435
Checksum:              338

Satellite: NOAA-11
Catalog number: 19531
Epoch time:      12270.75817345
Element set:    0073
Inclination:      098.7281 deg
RA of node:       353.7610 deg
Eccentricity:    0.0010651
Arg of perigee:   297.7286 deg
Mean anomaly:     062.2797 deg
Mean motion:   14.14981532 rev/day
Decay rate:      -1.14e-06 rev/day^2
Epoch rev:           23887
Checksum:              313

Satellite: NOAA-12
Catalog number: 21263
Epoch time:      12270.96328852
Element set:    0565
Inclination:      098.7244 deg
RA of node:       292.1281 deg
Eccentricity:    0.0012995
Arg of perigee:   267.1247 deg
Mean anomaly:     092.8445 deg
Mean motion:   14.25519127 rev/day
Decay rate:        2.6e-07 rev/day^2
Epoch rev:           11105
Checksum:              298

Satellite: MET-3/5
Catalog number: 21655
Epoch time:      12270.49021303
Element set:    0001
Inclination:      082.5529 deg
RA of node:       080.6154 deg
Eccentricity:    0.0014330
Arg of perigee:   072.1173 deg
Mean anomaly:     288.1511 deg
Mean motion:   13.17041117 rev/day
Decay rate:        8.5e-07 rev/day^2
Epoch rev:           01498
Checksum:              247

Satellite: MET-2/21
Catalog number: 22782
Epoch time:      12270.68146769
Element set:     537
Inclination:      082.5488 deg
RA of node:       311.9896 deg
Eccentricity:    0.0021210
Arg of perigee:   225.7391 deg
Mean anomaly:     134.2042 deg
Mean motion:   13.83687901 rev/day
Decay rate:       -5.1e-07 rev/day^2
Epoch rev:           96320
Checksum:              307

Satellite: OKEAN-4
Catalog number: 23317
Epoch time:      12270.85476100
Element set:    0033
Inclination:      082.5385 deg
RA of node:       296.1472 deg
Eccentricity:    0.0022420
Arg of perigee:   020.7775 deg
Mean anomaly:     339.4347 deg
Mean motion:   14.83960965 rev/day
Decay rate:      1.107e-05 rev/day^2
Epoch rev:           96988
Checksum:              311

Satellite: NOAA-14
Catalog number: 23455
Epoch time:      12270.88039328
Element set:    0049
Inclination:      098.8239 deg
RA of node:       353.0776 deg
Eccentricity:    0.0010211
Arg of perigee:   029.8943 deg
Mean anomaly:     330.2810 deg
Mean motion:   14.13871655 rev/day
Decay rate:        1.4e-07 rev/day^2
Epoch rev:           91516
Checksum:              296

Satellite: NOAA-15
Catalog number: 25338
Epoch time:      12270.58063395
Element set:    0419
Inclination:      098.7008 deg
RA of node:       256.5857 deg
Eccentricity:    0.0010629
Arg of perigee:   169.1917 deg
Mean anomaly:     190.9494 deg
Mean motion:   14.25121789 rev/day
Decay rate:       1.90e-06 rev/day^2
Epoch rev:           74729
Checksum:              339

Satellite: RESURS
Catalog number: 25394
Epoch time:      12270.98386295
Element set:    0197
Inclination:      098.3299 deg
RA of node:       253.9130 deg
Eccentricity:    0.0001262
Arg of perigee:   350.5144 deg
Mean anomaly:     009.6012 deg
Mean motion:   14.24297418 rev/day
Decay rate:        5.0e-07 rev/day^2
Epoch rev:           73889
Checksum:              308

Satellite: FENGYUN1
Catalog number: 25730
Epoch time:      12271.91835852
Element set:     704
Inclination:      098.8521 deg
RA of node:       229.1587 deg
Eccentricity:    0.0020664
Arg of perigee:   065.1012 deg
Mean anomaly:     295.2302 deg
Mean motion:   14.09754668 rev/day
Decay rate:       6.14e-06 rev/day^2
Epoch rev:           68908
Checksum:              307

Satellite: OKEAN-0
Catalog number: 25860
Epoch time:      12270.93241284
Element set:    0761
Inclination:      097.9494 deg
RA of node:       231.5686 deg
Eccentricity:    0.0000734
Arg of perigee:   035.4758 deg
Mean anomaly:     324.6500 deg
Mean motion:   14.74309213 rev/day
Decay rate:       5.75e-06 rev/day^2
Epoch rev:           70956
Checksum:              307

Satellite: NOAA-16
Catalog number: 26536
Epoch time:      12270.73810919
Element set:    0908
Inclination:      099.0844 deg
RA of node:       314.3784 deg
Eccentricity:    0.0010842
Arg of perigee:   154.9028 deg
Mean anomaly:     205.2656 deg
Mean motion:   14.12784969 rev/day
Decay rate:       2.55e-06 rev/day^2
Epoch rev:           61937
Checksum:              329

Satellite: NOAA-17
Catalog number: 27453
Epoch time:      12270.66263448
Element set:    0853
Inclination:      098.3313 deg
RA of node:       292.5472 deg
Eccentricity:    0.0011042
Arg of perigee:   215.9107 deg
Mean anomaly:     144.1330 deg
Mean motion:   14.24485371 rev/day
Decay rate:       1.84e-06 rev/day^2
Epoch rev:           53320
Checksum:              278

Satellite: NOAA-18
Catalog number: 28654
Epoch time:      12270.91545063
Element set:    0334
Inclination:      099.0580 deg
RA of node:       229.9118 deg
Eccentricity:    0.0013526
Arg of perigee:   227.6954 deg
Mean anomaly:     132.3056 deg
Mean motion:   14.11703727 rev/day
Decay rate:        5.2e-07 rev/day^2
Epoch rev:           37891
Checksum:              303

Satellite: NOAA-19
Catalog number: 33591
Epoch time:      12270.87538238
Element set:    0523
Inclination:      098.8696 deg
RA of node:       209.4360 deg
Eccentricity:    0.0014936
Arg of perigee:   093.0294 deg
Mean anomaly:     267.2561 deg
Mean motion:   14.11390740 rev/day
Decay rate:       2.36e-06 rev/day^2
Epoch rev:           18735
Checksum:              321

/EX
SB KEPS @ AMSAT  $ORB12271.M
Orbital Elements  12271.MISC

HR AMSAT ORBITAL ELEMENTS FOR MANNED AND MISCELLANEOUS SATELLITES
FROM WA5QGD FORT WORTH,TX September 27, 2012
Send SUBSCRIBE KEPS/UNSUBSCRIBE KEPS to majordomo at amsat.org only
BID: ORB12271.M
TO ALL RADIO AMATEURS BT

Satellite: HUBBLE
Catalog number: 20580
Epoch time:      12271.20726304
Element set:      78
Inclination:      028.4692 deg
RA of node:       195.7700 deg
Eccentricity:    0.0003189
Arg of perigee:   071.1538 deg
Mean anomaly:     288.9500 deg
Mean motion:   15.02819243 rev/day
Decay rate:      2.390e-05 rev/day^2
Epoch rev:            3009
Checksum:              274

Satellite: ISS
Catalog number: 25544
Epoch time:      12271.74935508
Element set:     375
Inclination:      051.6482 deg
RA of node:       331.6519 deg
Eccentricity:    0.0017849
Arg of perigee:   107.2590 deg
Mean anomaly:     351.4520 deg
Mean motion:   15.50264162 rev/day
Decay rate:     2.0637e-04 rev/day^2
Epoch rev:           79395
Checksum:              306

Satellite: CO-58
Catalog number: 28895
Epoch time:      12271.62960078
Element set:     287
Inclination:      097.8982 deg
RA of node:       133.3246 deg
Eccentricity:    0.0017333
Arg of perigee:   185.8302 deg
Mean anomaly:     174.2703 deg
Mean motion:   14.60757213 rev/day
Decay rate:       8.75e-06 rev/day^2
Epoch rev:           36861
Checksum:              336

Satellite: FALCON
Catalog number: 30776
Epoch time:      12270.75802840
Element set:     445
Inclination:      035.4330 deg
RA of node:       016.1232 deg
Eccentricity:    0.0001463
Arg of perigee:   149.9442 deg
Mean anomaly:     210.1360 deg
Mean motion:   15.08276558 rev/day
Decay rate:      5.258e-05 rev/day^2
Epoch rev:           30559
Checksum:              272

Satellite: MAST
Catalog number: 31126
Epoch time:      12270.98766871
Element set:    0578
Inclination:      097.8761 deg
RA of node:       276.1473 deg
Eccentricity:    0.0093935
Arg of perigee:   152.7735 deg
Mean anomaly:     207.8442 deg
Mean motion:   14.54261296 rev/day
Decay rate:       5.74e-06 rev/day^2
Epoch rev:           28906
Checksum:              341

Satellite: CAPE1
Catalog number: 31130
Epoch time:      12270.55683236
Element set:     577
Inclination:      097.8861 deg
RA of node:       272.0750 deg
Eccentricity:    0.0101355
Arg of perigee:   167.9567 deg
Mean anomaly:     192.4096 deg
Mean motion:   14.53073442 rev/day
Decay rate:       6.00e-06 rev/day^2
Epoch rev:           28849
Checksum:              306

